Time,TemperatureF,DewpointF,PressureIn,WindDirection,WindDirectionDegrees,WindSpeedMPH,WindSpeedGustMPH,Humidity,HourlyPrecipIn,Conditions,Clouds,dailyrainin,SoftwareType,DateUTC
2013-07-19 00:04:00,72.5,10.5,24.91,West,265,7.0,-999.0,9,-99.99,,,-99.99,dwt +perl,2013-07-19 07:04:00,
2013-07-19 00:09:00,72.5,10.5,24.91,West,261,6.0,-999.0,9,-99.99,,,-99.99,dwt +perl,2013-07-19 07:09:00,
2013-07-19 00:14:00,72.5,12.9,24.91,WSW,258,5.0,-999.0,10,-99.99,,,-99.99,dwt +perl,2013-07-19 07:14:00,
2013-07-19 00:19:00,72.5,12.9,24.91,WSW,258,6.0,-999.0,10,-99.99,,,-99.99,dwt +perl,2013-07-19 07:19:00,
2013-07-19 00:24:00,72.5,12.9,24.91,WSW,258,7.0,-999.0,10,-99.99,,,-99.99,dwt +perl,2013-07-19 07:24:00,
2013-07-19 00:29:00,72.5,12.9,24.91,WSW,256,7.0,-999.0,10,-99.99,,,-99.99,dwt +perl,2013-07-19 07:29:00,
2013-07-19 00:34:00,72.4,12.8,24.91,WSW,254,6.0,-999.0,10,-99.99,,,-99.99,dwt +perl,2013-07-19 07:34:00,
2013-07-19 00:39:00,72.4,12.8,24.90,WSW,253,6.0,-999.0,10,-99.99,,,-99.99,dwt +perl,2013-07-19 07:39:00,
2013-07-19 00:49:00,72.2,16.8,24.90,WSW,253,5.0,-999.0,12,-99.99,,,-99.99,dwt +perl,2013-07-19 07:49:00,
2013-07-19 00:54:00,72.1,20.3,24.90,WSW,253,5.0,-999.0,14,-99.99,,,-99.99,dwt +perl,2013-07-19 07:54:00,
2013-07-19 00:59:00,72.1,20.3,24.90,WSW,253,4.0,-999.0,14,-99.99,,,-99.99,dwt +perl,2013-07-19 07:59:00,
2013-07-19 01:04:00,72.1,20.3,24.90,WSW,253,6.0,-999.0,14,-99.99,,,-99.99,dwt +perl,2013-07-19 08:04:00,
2013-07-19 01:09:00,72.1,21.9,24.90,WSW,253,5.0,-999.0,15,-99.99,,,-99.99,dwt +perl,2013-07-19 08:09:00,
2013-07-19 01:14:00,72.1,21.9,24.90,WSW,253,6.0,-999.0,15,-99.99,,,-99.99,dwt +perl,2013-07-19 08:14:00,
2013-07-19 01:19:00,72.0,21.8,24.90,WSW,253,5.0,-999.0,15,-99.99,,,-99.99,dwt +perl,2013-07-19 08:19:00,
2013-07-19 01:24:00,71.9,21.8,24.89,WSW,253,6.0,-999.0,15,-99.99,,,-99.99,dwt +perl,2013-07-19 08:24:00,
2013-07-19 01:29:00,71.8,23.2,24.89,WSW,253,5.0,-999.0,16,-99.99,,,-99.99,dwt +perl,2013-07-19 08:29:00,
2013-07-19 01:34:00,71.8,23.2,24.89,WSW,254,6.0,-999.0,16,-99.99,,,-99.99,dwt +perl,2013-07-19 08:34:00,
2013-07-19 01:39:00,71.7,20.0,24.89,WSW,253,5.0,-999.0,14,-99.99,,,-99.99,dwt +perl,2013-07-19 08:39:00,
2013-07-19 01:44:00,71.8,20.0,24.89,WSW,253,6.0,-999.0,14,-99.99,,,-99.99,dwt +perl,2013-07-19 08:44:00,
2013-07-19 01:49:00,71.8,20.0,24.89,WSW,253,6.0,-999.0,14,-99.99,,,-99.99,dwt +perl,2013-07-19 08:49:00,
2013-07-19 01:54:00,71.8,21.7,24.88,WSW,252,7.0,-999.0,15,-99.99,,,-99.99,dwt +perl,2013-07-19 08:54:00,
2013-07-19 01:59:00,71.7,23.1,24.88,WSW,249,6.0,-999.0,16,-99.99,,,-99.99,dwt +perl,2013-07-19 08:59:00,
2013-07-19 02:04:00,71.6,23.0,24.88,WSW,249,7.0,-999.0,16,-99.99,,,-99.99,dwt +perl,2013-07-19 09:04:00,
2013-07-19 02:09:00,71.5,23.0,24.88,WSW,248,5.0,-999.0,16,-99.99,,,-99.99,dwt +perl,2013-07-19 09:09:00,
2013-07-19 02:14:00,71.7,18.2,24.88,WSW,251,5.0,-999.0,13,-99.99,,,-99.99,dwt +perl,2013-07-19 09:14:00,
2013-07-19 02:19:00,71.7,16.4,24.88,WSW,249,5.0,-999.0,12,-99.99,,,-99.99,dwt +perl,2013-07-19 09:19:00,
2013-07-19 02:24:00,71.8,16.5,24.88,WSW,247,7.0,-999.0,12,-99.99,,,-99.99,dwt +perl,2013-07-19 09:24:00,
2013-07-19 02:29:00,71.8,14.5,24.88,WSW,252,6.0,-999.0,11,-99.99,,,-99.99,dwt +perl,2013-07-19 09:29:00,
2013-07-19 02:34:00,71.7,12.2,24.87,WSW,250,7.0,-999.0,10,-99.99,,,-99.99,dwt +perl,2013-07-19 09:34:00,
2013-07-19 02:39:00,71.7,9.9,24.87,WSW,246,8.0,-999.0,9,-99.99,,,-99.99,dwt +perl,2013-07-19 09:39:00,
2013-07-19 02:44:00,71.7,7.3,24.88,WSW,255,8.0,-999.0,8,-99.99,,,-99.99,dwt +perl,2013-07-19 09:44:00,
2013-07-19 02:49:00,71.7,7.3,24.88,WSW,252,6.0,-999.0,8,-99.99,,,-99.99,dwt +perl,2013-07-19 09:49:00,
2013-07-19 02:54:00,71.5,7.1,24.88,WSW,251,9.0,-999.0,8,-99.99,,,-99.99,dwt +perl,2013-07-19 09:54:00,
2013-07-19 02:59:00,71.5,4.2,24.87,WSW,252,6.0,-999.0,7,-99.99,,,-99.99,dwt +perl,2013-07-19 09:59:00,
2013-07-19 03:04:00,71.5,4.2,24.87,WSW,254,7.0,-999.0,7,-99.99,,,-99.99,dwt +perl,2013-07-19 10:04:00,
2013-07-19 03:09:00,71.5,4.2,24.87,West,262,7.0,-999.0,7,-99.99,,,-99.99,dwt +perl,2013-07-19 10:09:00,
2013-07-19 03:14:00,71.5,0.9,24.87,West,261,7.0,-999.0,6,-99.99,,,-99.99,dwt +perl,2013-07-19 10:14:00,
2013-07-19 03:19:00,71.4,0.8,24.87,WSW,247,7.0,-999.0,6,-99.99,,,-99.99,dwt +perl,2013-07-19 10:19:00,
2013-07-19 03:24:00,71.4,9.6,24.87,West,261,7.0,-999.0,9,-99.99,,,-99.99,dwt +perl,2013-07-19 10:24:00,
2013-07-19 03:29:00,71.2,14.0,24.87,West,263,6.0,-999.0,11,-99.99,,,-99.99,dwt +perl,2013-07-19 10:29:00,
2013-07-19 03:34:00,71.2,11.9,24.87,WSW,258,6.0,-999.0,10,-99.99,,,-99.99,dwt +perl,2013-07-19 10:34:00,
2013-07-19 03:39:00,71.1,6.8,24.87,WSW,258,6.0,-999.0,8,-99.99,,,-99.99,dwt +perl,2013-07-19 10:39:00,
2013-07-19 03:44:00,71.2,9.5,24.87,WSW,258,8.0,-999.0,9,-99.99,,,-99.99,dwt +perl,2013-07-19 10:44:00,
2013-07-19 03:49:00,71.1,9.4,24.87,West,263,8.0,-999.0,9,-99.99,,,-99.99,dwt +perl,2013-07-19 10:49:00,
2013-07-19 03:54:00,71.2,4.0,24.87,West,263,8.0,-999.0,7,-99.99,,,-99.99,dwt +perl,2013-07-19 10:54:00,
2013-07-19 03:59:00,71.3,9.6,24.87,West,261,9.0,-999.0,9,-99.99,,,-99.99,dwt +perl,2013-07-19 10:59:00,
2013-07-19 04:04:00,71.3,11.9,24.87,West,263,6.0,-999.0,10,-99.99,,,-99.99,dwt +perl,2013-07-19 11:04:00,
2013-07-19 04:09:00,71.2,11.9,24.87,West,264,7.0,-999.0,10,-99.99,,,-99.99,dwt +perl,2013-07-19 11:09:00,
2013-07-19 04:14:00,71.1,11.8,24.87,West,260,6.0,-999.0,10,-99.99,,,-99.99,dwt +perl,2013-07-19 11:14:00,
2013-07-19 04:19:00,71.0,11.7,24.87,WSW,256,5.0,-999.0,10,-99.99,,,-99.99,dwt +perl,2013-07-19 11:19:00,
2013-07-19 04:24:00,71.0,15.8,24.87,WSW,258,6.0,-999.0,12,-99.99,,,-99.99,dwt +perl,2013-07-19 11:24:00,
2013-07-19 04:29:00,71.0,15.8,24.87,WSW,253,5.0,-999.0,12,-99.99,,,-99.99,dwt +perl,2013-07-19 11:29:00,
2013-07-19 04:34:00,71.0,17.7,24.87,WSW,256,5.0,-999.0,13,-99.99,,,-99.99,dwt +perl,2013-07-19 11:34:00,
2013-07-19 04:39:00,70.9,15.8,24.87,West,261,5.0,-999.0,12,-99.99,,,-99.99,dwt +perl,2013-07-19 11:39:00,
2013-07-19 04:44:00,70.9,15.8,24.87,WSW,258,5.0,-999.0,12,-99.99,,,-99.99,dwt +perl,2013-07-19 11:44:00,
2013-07-19 04:49:00,70.9,15.8,24.87,WSW,258,6.0,-999.0,12,-99.99,,,-99.99,dwt +perl,2013-07-19 11:49:00,
2013-07-19 04:54:00,70.9,15.8,24.87,West,259,5.0,-999.0,12,-99.99,,,-99.99,dwt +perl,2013-07-19 11:54:00,
2013-07-19 04:59:00,71.0,17.7,24.87,West,262,8.0,-999.0,13,-99.99,,,-99.99,dwt +perl,2013-07-19 11:59:00,
2013-07-19 05:04:00,70.9,15.8,24.87,WSW,258,7.0,-999.0,12,-99.99,,,-99.99,dwt +perl,2013-07-19 12:04:00,
2013-07-19 05:09:00,70.8,15.7,24.87,WSW,257,6.0,-999.0,12,-99.99,,,-99.99,dwt +perl,2013-07-19 12:09:00,
2013-07-19 05:14:00,70.7,15.6,24.87,WSW,256,6.0,-999.0,12,-99.99,,,-99.99,dwt +perl,2013-07-19 12:14:00,
2013-07-19 05:19:00,70.8,15.7,24.87,WSW,254,6.0,-999.0,12,-99.99,,,-99.99,dwt +perl,2013-07-19 12:19:00,
2013-07-19 05:24:00,70.9,15.8,24.87,WSW,256,5.0,-999.0,12,-99.99,,,-99.99,dwt +perl,2013-07-19 12:24:00,
2013-07-19 05:29:00,70.9,15.8,24.87,WSW,258,5.0,-999.0,12,-99.99,,,-99.99,dwt +perl,2013-07-19 12:29:00,
2013-07-19 05:34:00,70.8,17.5,24.87,West,260,7.0,-999.0,13,-99.99,,,-99.99,dwt +perl,2013-07-19 12:34:00,
2013-07-19 05:39:00,70.8,15.7,24.87,WSW,251,5.0,-999.0,12,-99.99,,,-99.99,dwt +perl,2013-07-19 12:39:00,
2013-07-19 05:44:00,70.9,11.6,24.87,WSW,251,7.0,-999.0,10,-99.99,,,-99.99,dwt +perl,2013-07-19 12:44:00,
2013-07-19 05:49:00,71.0,11.7,24.87,WSW,256,6.0,-999.0,10,-99.99,,,-99.99,dwt +perl,2013-07-19 12:49:00,
2013-07-19 05:54:00,70.9,11.6,24.87,WSW,253,5.0,-999.0,10,-99.99,,,-99.99,dwt +perl,2013-07-19 12:54:00,
2013-07-19 05:59:00,71.0,9.4,24.87,WSW,253,7.0,-999.0,9,-99.99,,,-99.99,dwt +perl,2013-07-19 12:59:00,
2013-07-19 06:04:00,71.0,11.7,24.87,WSW,254,5.0,-999.0,10,-99.99,,,-99.99,dwt +perl,2013-07-19 13:04:00,
2013-07-19 06:09:00,71.1,13.9,24.87,WSW,255,4.0,-999.0,11,-99.99,,,-99.99,dwt +perl,2013-07-19 13:09:00,
2013-07-19 06:14:00,71.0,9.4,24.87,WSW,255,4.0,-999.0,9,-99.99,,,-99.99,dwt +perl,2013-07-19 13:14:00,
2013-07-19 06:19:00,71.1,3.9,24.87,WSW,256,4.0,-999.0,7,-99.99,,,-99.99,dwt +perl,2013-07-19 13:19:00,
2013-07-19 06:24:00,71.3,4.1,24.87,WSW,256,6.0,-999.0,7,-99.99,,,-99.99,dwt +perl,2013-07-19 13:24:00,
2013-07-19 06:29:00,71.3,0.8,24.87,WSW,256,4.0,-999.0,6,-99.99,,,-99.99,dwt +perl,2013-07-19 13:29:00,
2013-07-19 06:34:00,71.5,4.2,24.87,WSW,256,4.0,-999.0,7,-99.99,,,-99.99,dwt +perl,2013-07-19 13:34:00,
2013-07-19 06:39:00,71.5,0.9,24.87,WSW,256,3.0,-999.0,6,-99.99,,,-99.99,dwt +perl,2013-07-19 13:39:00,
2013-07-19 06:44:00,71.7,1.0,24.87,WSW,256,3.0,-999.0,6,-99.99,,,-99.99,dwt +perl,2013-07-19 13:44:00,
2013-07-19 06:49:00,71.8,12.3,24.87,WSW,256,3.0,-999.0,10,-99.99,,,-99.99,dwt +perl,2013-07-19 13:49:00,
2013-07-19 06:54:00,71.7,14.4,24.87,WSW,256,3.0,-999.0,11,-99.99,,,-99.99,dwt +perl,2013-07-19 13:54:00,
2013-07-19 06:59:00,71.6,9.8,24.87,WSW,256,3.0,-999.0,9,-99.99,,,-99.99,dwt +perl,2013-07-19 13:59:00,
2013-07-19 07:04:00,71.7,7.3,24.87,WSW,256,3.0,-999.0,8,-99.99,,,-99.99,dwt +perl,2013-07-19 14:04:00,
2013-07-19 07:09:00,71.9,10.0,24.87,WSW,256,3.0,-999.0,9,-99.99,,,-99.99,dwt +perl,2013-07-19 14:09:00,
2013-07-19 07:14:00,72.1,4.7,24.87,WSW,256,4.0,-999.0,7,-99.99,,,-99.99,dwt +perl,2013-07-19 14:14:00,
2013-07-19 07:19:00,72.2,4.7,24.87,WSW,256,3.0,-999.0,7,-99.99,,,-99.99,dwt +perl,2013-07-19 14:19:00,
2013-07-19 07:24:00,72.3,-2.4,24.87,WSW,256,3.0,-999.0,5,-99.99,,,-99.99,dwt +perl,2013-07-19 14:24:00,
2013-07-19 07:29:00,72.4,4.9,24.87,WSW,256,3.0,-999.0,7,-99.99,,,-99.99,dwt +perl,2013-07-19 14:29:00,
2013-07-19 07:34:00,72.6,1.7,24.88,WSW,256,2.0,-999.0,6,-99.99,,,-99.99,dwt +perl,2013-07-19 14:34:00,
2013-07-19 07:39:00,72.7,1.8,24.88,WSW,256,2.0,-999.0,6,-99.99,,,-99.99,dwt +perl,2013-07-19 14:39:00,
2013-07-19 07:44:00,72.8,-2.0,24.88,WSW,256,1.0,-999.0,5,-99.99,,,-99.99,dwt +perl,2013-07-19 14:44:00,
2013-07-19 07:49:00,73.0,-1.9,24.88,WSW,256,2.0,-999.0,5,-99.99,,,-99.99,dwt +perl,2013-07-19 14:49:00,
2013-07-19 07:54:00,73.2,-1.7,24.88,WSW,256,0.0,-999.0,5,-99.99,,,-99.99,dwt +perl,2013-07-19 14:54:00,
2013-07-19 07:59:00,73.4,-1.6,24.88,WSW,256,0.0,-999.0,5,-99.99,,,-99.99,dwt +perl,2013-07-19 14:59:00,
2013-07-19 08:04:00,73.5,2.3,24.88,WSW,256,2.0,-999.0,6,-99.99,,,-99.99,dwt +perl,2013-07-19 15:04:00,
2013-07-19 08:09:00,73.5,-1.5,24.88,WSW,256,0.0,-999.0,5,-99.99,,,-99.99,dwt +perl,2013-07-19 15:09:00,
2013-07-19 08:14:00,73.5,-1.5,24.88,WSW,256,0.0,-999.0,5,-99.99,,,-99.99,dwt +perl,2013-07-19 15:14:00,
2013-07-19 08:19:00,73.6,-6.1,24.88,WSW,256,0.0,-999.0,4,-99.99,,,-99.99,dwt +perl,2013-07-19 15:19:00,
2013-07-19 08:34:00,73.7,2.5,24.89,WSW,256,0.0,-999.0,6,-99.99,,,-99.99,dwt +perl,2013-07-19 15:34:00,
2013-07-19 08:39:00,73.8,-11.8,24.88,WSW,256,0.0,-999.0,3,-99.99,,,-99.99,dwt +perl,2013-07-19 15:39:00,
2013-07-19 08:44:00,74.3,-1.0,24.88,WSW,256,0.0,-999.0,5,-99.99,,,-99.99,dwt +perl,2013-07-19 15:44:00,
2013-07-19 08:49:00,74.6,-0.8,24.89,WSW,256,0.0,-999.0,5,-99.99,,,-99.99,dwt +perl,2013-07-19 15:49:00,
2013-07-19 09:04:00,74.6,-0.8,24.88,WSW,256,0.0,-999.0,5,-99.99,,,-99.99,dwt +perl,2013-07-19 16:04:00,
2013-07-19 09:09:00,74.6,3.1,24.88,WSW,256,3.0,-999.0,6,-99.99,,,-99.99,dwt +perl,2013-07-19 16:09:00,
2013-07-19 09:14:00,74.6,3.1,24.89,WSW,256,1.0,-999.0,6,-99.99,,,-99.99,dwt +perl,2013-07-19 16:14:00,
2013-07-19 09:19:00,74.7,3.2,24.88,WSW,256,2.0,-999.0,6,-99.99,,,-99.99,dwt +perl,2013-07-19 16:19:00,
2013-07-19 09:34:00,74.7,3.2,24.88,WSW,256,2.0,-999.0,6,-99.99,,,-99.99,dwt +perl,2013-07-19 16:34:00,
2013-07-19 09:39:00,74.9,-0.5,24.88,WSW,256,0.0,-999.0,5,-99.99,,,-99.99,dwt +perl,2013-07-19 16:39:00,
2013-07-19 09:44:00,75.1,3.5,24.88,WSW,256,0.0,-999.0,6,-99.99,,,-99.99,dwt +perl,2013-07-19 16:44:00,
2013-07-19 09:49:00,75.6,7.2,24.88,WSW,256,2.0,-999.0,7,-99.99,,,-99.99,dwt +perl,2013-07-19 16:49:00,
2013-07-19 10:04:00,77.7,16.8,24.88,WSW,256,0.0,-999.0,10,-99.99,,,-99.99,dwt +perl,2013-07-19 17:04:00,
2013-07-19 10:09:00,78.2,14.8,24.88,WSW,256,0.0,-999.0,9,-99.99,,,-99.99,dwt +perl,2013-07-19 17:09:00,
2013-07-19 10:14:00,79.3,18.0,24.88,WSW,256,0.0,-999.0,10,-99.99,,,-99.99,dwt +perl,2013-07-19 17:14:00,
2013-07-19 10:19:00,79.9,13.4,24.88,WSW,256,0.0,-999.0,8,-99.99,,,-99.99,dwt +perl,2013-07-19 17:19:00,
2013-07-19 10:29:00,81.3,7.9,24.88,WSW,256,0.0,-999.0,6,-99.99,,,-99.99,dwt +perl,2013-07-19 17:29:00,
2013-07-19 10:34:00,81.0,7.7,24.88,WSW,256,0.0,-999.0,6,-99.99,,,-99.99,dwt +perl,2013-07-19 17:34:00,
2013-07-19 10:44:00,81.5,19.7,24.87,WSW,257,0.0,-999.0,10,-99.99,,,-99.99,dwt +perl,2013-07-19 17:44:00,
2013-07-19 10:49:00,81.9,22.2,24.88,WSW,257,1.0,-999.0,11,-99.99,,,-99.99,dwt +perl,2013-07-19 17:49:00,
2013-07-19 10:54:00,82.1,24.5,24.88,West,263,1.0,-999.0,12,-99.99,,,-99.99,dwt +perl,2013-07-19 17:54:00,
2013-07-19 10:59:00,82.6,20.5,24.88,West,263,1.0,-999.0,10,-99.99,,,-99.99,dwt +perl,2013-07-19 17:59:00,
2013-07-19 11:04:00,83.0,23.1,24.88,West,264,0.0,-999.0,11,-99.99,,,-99.99,dwt +perl,2013-07-19 18:04:00,
2013-07-19 11:14:00,83.1,18.4,24.88,West,267,0.0,-999.0,9,-99.99,,,-99.99,dwt +perl,2013-07-19 18:14:00,
2013-07-19 11:24:00,83.2,21.0,24.88,West,269,0.0,-999.0,10,-99.99,,,-99.99,dwt +perl,2013-07-19 18:24:00,
2013-07-19 11:29:00,83.2,21.0,24.88,North,354,3.0,-999.0,10,-99.99,,,-99.99,dwt +perl,2013-07-19 18:29:00,
2013-07-19 11:34:00,83.4,23.4,24.88,North,11,1.0,-999.0,11,-99.99,,,-99.99,dwt +perl,2013-07-19 18:34:00,
2013-07-19 11:49:00,83.5,23.5,24.88,NNE,18,0.0,-999.0,11,-99.99,,,-99.99,dwt +perl,2013-07-19 18:49:00,
2013-07-19 11:54:00,83.4,25.5,24.88,NNE,18,1.0,-999.0,12,-99.99,,,-99.99,dwt +perl,2013-07-19 18:54:00,
2013-07-19 11:59:00,83.7,23.6,24.87,NNE,18,2.0,-999.0,11,-99.99,,,-99.99,dwt +perl,2013-07-19 18:59:00,
2013-07-19 12:04:00,84.2,24.0,24.87,NNE,18,0.0,-999.0,11,-99.99,,,-99.99,dwt +perl,2013-07-19 19:04:00,
2013-07-19 12:09:00,84.4,24.1,24.87,East,79,1.0,-999.0,11,-99.99,,,-99.99,dwt +perl,2013-07-19 19:09:00,
2013-07-19 12:14:00,84.5,24.2,24.87,East,79,0.0,-999.0,11,-99.99,,,-99.99,dwt +perl,2013-07-19 19:14:00,
2013-07-19 12:19:00,84.0,25.9,24.87,ESE,108,1.0,-999.0,12,-99.99,,,-99.99,dwt +perl,2013-07-19 19:19:00,
2013-07-19 12:24:00,84.0,27.9,24.87,ESE,108,1.0,-999.0,13,-99.99,,,-99.99,dwt +perl,2013-07-19 19:24:00,
2013-07-19 12:29:00,84.1,26.0,24.87,ESE,106,2.0,-999.0,12,-99.99,,,-99.99,dwt +perl,2013-07-19 19:29:00,
2013-07-19 12:39:00,84.2,26.1,24.87,ENE,71,2.0,-999.0,12,-99.99,,,-99.99,dwt +perl,2013-07-19 19:39:00,
2013-07-19 12:44:00,84.0,27.9,24.87,ENE,71,4.0,-999.0,13,-99.99,,,-99.99,dwt +perl,2013-07-19 19:44:00,
2013-07-19 12:54:00,84.6,26.4,24.87,ESE,102,1.0,-999.0,12,-99.99,,,-99.99,dwt +perl,2013-07-19 19:54:00,
2013-07-19 12:59:00,84.5,24.2,24.87,ESE,104,0.0,-999.0,11,-99.99,,,-99.99,dwt +perl,2013-07-19 19:59:00,
2013-07-19 13:04:00,84.3,24.1,24.87,ESE,104,0.0,-999.0,11,-99.99,,,-99.99,dwt +perl,2013-07-19 20:04:00,
2013-07-19 13:09:00,84.6,26.4,24.87,NE,54,1.0,-999.0,12,-99.99,,,-99.99,dwt +perl,2013-07-19 20:09:00,
2013-07-19 13:14:00,84.3,26.1,24.86,NE,52,1.0,-999.0,12,-99.99,,,-99.99,dwt +perl,2013-07-19 20:14:00,
2013-07-19 13:19:00,84.3,24.1,24.86,NE,52,0.0,-999.0,11,-99.99,,,-99.99,dwt +perl,2013-07-19 20:19:00,
2013-07-19 13:24:00,84.3,28.1,24.86,NE,52,1.0,-999.0,13,-99.99,,,-99.99,dwt +perl,2013-07-19 20:24:00,
2013-07-19 13:34:00,84.7,28.4,24.86,NE,52,1.0,-999.0,13,-99.99,,,-99.99,dwt +perl,2013-07-19 20:34:00,
2013-07-19 13:44:00,84.8,28.5,24.86,ENE,74,0.0,-999.0,13,-99.99,,,-99.99,dwt +perl,2013-07-19 20:44:00,
2013-07-19 13:49:00,84.9,28.6,24.86,ENE,64,1.0,-999.0,13,-99.99,,,-99.99,dwt +perl,2013-07-19 20:49:00,
2013-07-19 13:54:00,84.8,26.5,24.86,ENE,63,1.0,-999.0,12,-99.99,,,-99.99,dwt +perl,2013-07-19 20:54:00,
2013-07-19 13:59:00,84.5,28.2,24.86,ENE,73,1.0,-999.0,13,-99.99,,,-99.99,dwt +perl,2013-07-19 20:59:00,
2013-07-19 14:04:00,84.5,28.2,24.86,ENE,72,3.0,-999.0,13,-99.99,,,-99.99,dwt +perl,2013-07-19 21:04:00,
2013-07-19 14:09:00,83.9,31.3,24.86,NE,49,0.0,-999.0,15,-99.99,,,-99.99,dwt +perl,2013-07-19 21:09:00,
2013-07-19 14:14:00,84.0,31.4,24.86,NE,50,0.0,-999.0,15,-99.99,,,-99.99,dwt +perl,2013-07-19 21:14:00,
2013-07-19 14:19:00,84.1,33.0,24.86,NE,50,0.0,-999.0,16,-99.99,,,-99.99,dwt +perl,2013-07-19 21:19:00,
2013-07-19 14:24:00,84.4,30.0,24.85,NE,49,4.0,-999.0,14,-99.99,,,-99.99,dwt +perl,2013-07-19 21:24:00,
2013-07-19 14:29:00,84.1,31.4,24.85,NE,52,1.0,-999.0,15,-99.99,,,-99.99,dwt +perl,2013-07-19 21:29:00,
2013-07-19 14:34:00,84.7,30.2,24.85,NE,56,1.0,-999.0,14,-99.99,,,-99.99,dwt +perl,2013-07-19 21:34:00,
2013-07-19 14:39:00,84.9,30.4,24.85,NE,56,0.0,-999.0,14,-99.99,,,-99.99,dwt +perl,2013-07-19 21:39:00,
2013-07-19 14:44:00,85.4,30.8,24.85,ENE,75,0.0,-999.0,14,-99.99,,,-99.99,dwt +perl,2013-07-19 21:44:00,
2013-07-19 14:49:00,85.6,30.9,24.85,ENE,75,0.0,-999.0,14,-99.99,,,-99.99,dwt +perl,2013-07-19 21:49:00,
2013-07-19 14:54:00,85.3,30.7,24.85,SSE,167,0.0,-999.0,14,-99.99,,,-99.99,dwt +perl,2013-07-19 21:54:00,
2013-07-19 14:59:00,84.8,30.3,24.85,SSW,193,0.0,-999.0,14,-99.99,,,-99.99,dwt +perl,2013-07-19 21:59:00,
2013-07-19 15:04:00,84.8,32.0,24.85,SSW,193,1.0,-999.0,15,-99.99,,,-99.99,dwt +perl,2013-07-19 22:04:00,
2013-07-19 15:09:00,85.1,32.2,24.84,SSW,196,2.0,-999.0,15,-99.99,,,-99.99,dwt +perl,2013-07-19 22:09:00,
2013-07-19 15:14:00,84.5,31.8,24.84,SW,218,1.0,-999.0,15,-99.99,,,-99.99,dwt +perl,2013-07-19 22:14:00,
2013-07-19 15:24:00,84.6,31.8,24.84,South,181,2.0,-999.0,15,-99.99,,,-99.99,dwt +perl,2013-07-19 22:24:00,
2013-07-19 15:29:00,84.5,30.1,24.84,South,181,0.0,-999.0,14,-99.99,,,-99.99,dwt +perl,2013-07-19 22:29:00,
2013-07-19 15:34:00,84.0,31.4,24.84,South,191,4.0,-999.0,15,-99.99,,,-99.99,dwt +perl,2013-07-19 22:34:00,
2013-07-19 15:39:00,84.1,31.4,24.84,South,187,3.0,-999.0,15,-99.99,,,-99.99,dwt +perl,2013-07-19 22:39:00,
2013-07-19 15:44:00,84.7,30.2,24.84,SW,218,2.0,-999.0,14,-99.99,,,-99.99,dwt +perl,2013-07-19 22:44:00,
2013-07-19 15:49:00,85.2,30.6,24.84,SW,218,1.0,-999.0,14,-99.99,,,-99.99,dwt +perl,2013-07-19 22:49:00,
2013-07-19 15:54:00,85.2,30.6,24.83,SW,218,0.0,-999.0,14,-99.99,,,-99.99,dwt +perl,2013-07-19 22:54:00,
2013-07-19 15:59:00,84.9,32.1,24.83,SW,218,2.0,-999.0,15,-99.99,,,-99.99,dwt +perl,2013-07-19 22:59:00,
2013-07-19 16:04:00,84.2,33.1,24.83,SW,218,0.0,-999.0,16,-99.99,,,-99.99,dwt +perl,2013-07-19 23:04:00,
2013-07-19 16:09:00,82.8,33.5,24.83,SW,233,1.0,-999.0,17,-99.99,,,-99.99,dwt +perl,2013-07-19 23:09:00,
2013-07-19 16:14:00,82.4,34.6,24.83,SW,229,3.0,-999.0,18,-99.99,,,-99.99,dwt +perl,2013-07-19 23:14:00,
2013-07-19 16:19:00,82.3,34.5,24.83,SW,231,2.0,-999.0,18,-99.99,,,-99.99,dwt +perl,2013-07-19 23:19:00,
2013-07-19 16:24:00,83.4,35.4,24.83,SW,231,0.0,-999.0,18,-99.99,,,-99.99,dwt +perl,2013-07-19 23:24:00,
2013-07-19 16:29:00,84.2,36.1,24.82,SW,220,0.0,-999.0,18,-99.99,,,-99.99,dwt +perl,2013-07-19 23:29:00,
2013-07-19 16:34:00,84.0,35.9,24.82,SW,220,0.0,-999.0,18,-99.99,,,-99.99,dwt +perl,2013-07-19 23:34:00,
2013-07-19 16:39:00,83.6,37.0,24.82,SW,221,3.0,-999.0,19,-99.99,,,-99.99,dwt +perl,2013-07-19 23:39:00,
2013-07-19 16:44:00,82.7,36.2,24.82,SW,214,7.0,-999.0,19,-99.99,,,-99.99,dwt +perl,2013-07-19 23:44:00,
2013-07-19 16:49:00,81.4,36.5,24.82,WSW,241,5.0,-999.0,20,-99.99,,,-99.99,dwt +perl,2013-07-19 23:49:00,
2013-07-19 16:54:00,81.5,37.8,24.82,SW,233,3.0,-999.0,21,-99.99,,,-99.99,dwt +perl,2013-07-19 23:54:00,
2013-07-19 16:59:00,81.1,37.5,24.82,SSW,212,5.0,-999.0,21,-99.99,,,-99.99,dwt +perl,2013-07-19 23:59:00,
2013-07-19 17:04:00,79.8,38.7,24.82,SW,216,4.0,-999.0,23,-99.99,,,-99.99,dwt +perl,2013-07-20 00:04:00,
2013-07-19 17:09:00,79.7,40.7,24.82,WSW,240,7.0,-999.0,25,-99.99,,,-99.99,dwt +perl,2013-07-20 00:09:00,
2013-07-19 17:14:00,80.0,41.0,24.81,SW,214,8.0,-999.0,25,-99.99,,,-99.99,dwt +perl,2013-07-20 00:14:00,
2013-07-19 17:19:00,79.5,40.6,24.81,SSW,211,6.0,-999.0,25,-99.99,,,-99.99,dwt +perl,2013-07-20 00:19:00,
2013-07-19 17:24:00,78.9,39.0,24.81,SW,223,7.0,-999.0,24,-99.99,,,-99.99,dwt +perl,2013-07-20 00:24:00,
2013-07-19 17:29:00,78.1,40.4,24.81,SSW,210,8.0,-999.0,26,-99.99,,,-99.99,dwt +perl,2013-07-20 00:29:00,
2013-07-19 17:34:00,77.7,38.0,24.81,SW,228,5.0,-999.0,24,-99.99,,,-99.99,dwt +perl,2013-07-20 00:34:00,
2013-07-19 17:39:00,78.0,38.3,24.81,SW,229,5.0,-999.0,24,-99.99,,,-99.99,dwt +perl,2013-07-20 00:39:00,
2013-07-19 17:44:00,77.9,41.2,24.81,SW,224,6.0,-999.0,27,-99.99,,,-99.99,dwt +perl,2013-07-20 00:44:00,
2013-07-19 17:49:00,78.5,39.7,24.80,SW,220,8.0,-999.0,25,-99.99,,,-99.99,dwt +perl,2013-07-20 00:49:00,
2013-07-19 17:54:00,78.4,39.7,24.80,SW,214,7.0,-999.0,25,-99.99,,,-99.99,dwt +perl,2013-07-20 00:54:00,
2013-07-19 17:59:00,77.8,38.1,24.80,SW,224,6.0,-999.0,24,-99.99,,,-99.99,dwt +perl,2013-07-20 00:59:00,
2013-07-19 18:04:00,77.7,41.0,24.80,WSW,238,6.0,-999.0,27,-99.99,,,-99.99,dwt +perl,2013-07-20 01:04:00,
2013-07-19 18:09:00,77.7,41.0,24.80,SW,216,6.0,-999.0,27,-99.99,,,-99.99,dwt +perl,2013-07-20 01:09:00,
2013-07-19 18:14:00,77.8,41.1,24.80,SW,220,4.0,-999.0,27,-99.99,,,-99.99,dwt +perl,2013-07-20 01:14:00,
2013-07-19 18:19:00,77.6,41.0,24.80,SW,224,7.0,-999.0,27,-99.99,,,-99.99,dwt +perl,2013-07-20 01:19:00,
2013-07-19 18:24:00,77.1,40.5,24.80,SW,231,6.0,-999.0,27,-99.99,,,-99.99,dwt +perl,2013-07-20 01:24:00,
2013-07-19 18:29:00,76.5,41.0,24.80,SW,228,7.0,-999.0,28,-99.99,,,-99.99,dwt +perl,2013-07-20 01:29:00,
2013-07-19 18:34:00,76.0,39.6,24.80,SW,230,5.0,-999.0,27,-99.99,,,-99.99,dwt +perl,2013-07-20 01:34:00,
2013-07-19 18:39:00,76.0,39.6,24.80,SW,233,4.0,-999.0,27,-99.99,,,-99.99,dwt +perl,2013-07-20 01:39:00,
2013-07-19 18:44:00,75.7,38.4,24.79,SW,232,4.0,-999.0,26,-99.99,,,-99.99,dwt +perl,2013-07-20 01:44:00,
2013-07-19 18:49:00,75.7,39.3,24.79,SW,228,5.0,-999.0,27,-99.99,,,-99.99,dwt +perl,2013-07-20 01:49:00,
2013-07-19 18:54:00,75.7,39.3,24.79,SW,232,7.0,-999.0,27,-99.99,,,-99.99,dwt +perl,2013-07-20 01:54:00,
2013-07-19 18:59:00,75.5,40.1,24.79,WSW,240,3.0,-999.0,28,-99.99,,,-99.99,dwt +perl,2013-07-20 01:59:00,
2013-07-19 19:04:00,75.7,39.3,24.79,WSW,244,5.0,-999.0,27,-99.99,,,-99.99,dwt +perl,2013-07-20 02:04:00,
2013-07-19 19:09:00,75.5,38.2,24.79,WSW,244,5.0,-999.0,26,-99.99,,,-99.99,dwt +perl,2013-07-20 02:09:00,
2013-07-19 19:14:00,75.6,39.2,24.80,WSW,244,2.0,-999.0,27,-99.99,,,-99.99,dwt +perl,2013-07-20 02:14:00,
2013-07-19 19:19:00,75.7,38.4,24.80,WSW,244,2.0,-999.0,26,-99.99,,,-99.99,dwt +perl,2013-07-20 02:19:00,
2013-07-19 19:24:00,75.9,37.5,24.80,WSW,244,1.0,-999.0,25,-99.99,,,-99.99,dwt +perl,2013-07-20 02:24:00,
2013-07-19 19:29:00,76.1,36.7,24.80,WSW,244,2.0,-999.0,24,-99.99,,,-99.99,dwt +perl,2013-07-20 02:29:00,
2013-07-19 19:34:00,76.1,34.5,24.80,WSW,244,3.0,-999.0,22,-99.99,,,-99.99,dwt +perl,2013-07-20 02:34:00,
2013-07-19 19:39:00,76.0,35.5,24.80,WSW,244,3.0,-999.0,23,-99.99,,,-99.99,dwt +perl,2013-07-20 02:39:00,
2013-07-19 19:44:00,76.0,34.4,24.80,WSW,244,2.0,-999.0,22,-99.99,,,-99.99,dwt +perl,2013-07-20 02:44:00,
2013-07-19 19:49:00,75.9,33.2,24.80,WSW,244,2.0,-999.0,21,-99.99,,,-99.99,dwt +perl,2013-07-20 02:49:00,
2013-07-19 19:54:00,75.8,30.6,24.80,WSW,245,2.0,-999.0,19,-99.99,,,-99.99,dwt +perl,2013-07-20 02:54:00,
2013-07-19 19:59:00,75.8,30.6,24.80,WSW,245,2.0,-999.0,19,-99.99,,,-99.99,dwt +perl,2013-07-20 02:59:00,
2013-07-19 20:04:00,75.8,29.3,24.80,WSW,245,2.0,-999.0,18,-99.99,,,-99.99,dwt +perl,2013-07-20 03:04:00,
2013-07-19 20:09:00,75.8,24.9,24.80,WSW,245,4.0,-999.0,15,-99.99,,,-99.99,dwt +perl,2013-07-20 03:09:00,
2013-07-19 20:14:00,75.7,23.1,24.80,WSW,247,2.0,-999.0,14,-99.99,,,-99.99,dwt +perl,2013-07-20 03:14:00,
2013-07-19 20:19:00,75.7,23.1,24.80,WSW,246,2.0,-999.0,14,-99.99,,,-99.99,dwt +perl,2013-07-20 03:19:00,
2013-07-19 20:24:00,75.6,21.3,24.81,WSW,247,3.0,-999.0,13,-99.99,,,-99.99,dwt +perl,2013-07-20 03:24:00,
2013-07-19 20:29:00,75.5,19.3,24.81,WSW,247,3.0,-999.0,12,-99.99,,,-99.99,dwt +perl,2013-07-20 03:29:00,
2013-07-19 20:34:00,75.4,15.1,24.81,WSW,246,3.0,-999.0,10,-99.99,,,-99.99,dwt +perl,2013-07-20 03:34:00,
2013-07-19 20:39:00,75.3,15.0,24.81,WSW,247,3.0,-999.0,10,-99.99,,,-99.99,dwt +perl,2013-07-20 03:39:00,
2013-07-19 20:44:00,75.3,19.2,24.81,WSW,246,0.0,-999.0,12,-99.99,,,-99.99,dwt +perl,2013-07-20 03:44:00,
2013-07-19 20:49:00,75.2,21.0,24.81,WSW,247,0.0,-999.0,13,-99.99,,,-99.99,dwt +perl,2013-07-20 03:49:00,
2013-07-19 20:54:00,75.1,25.8,24.81,WSW,247,2.0,-999.0,16,-99.99,,,-99.99,dwt +perl,2013-07-20 03:54:00,
2013-07-19 20:59:00,75.1,19.0,24.81,WSW,247,2.0,-999.0,12,-99.99,,,-99.99,dwt +perl,2013-07-20 03:59:00,
2013-07-19 21:04:00,75.2,17.1,24.81,WSW,247,3.0,-999.0,11,-99.99,,,-99.99,dwt +perl,2013-07-20 04:04:00,
2013-07-19 21:09:00,75.3,21.1,24.82,WSW,246,0.0,-999.0,13,-99.99,,,-99.99,dwt +perl,2013-07-20 04:09:00,
2013-07-19 21:14:00,75.1,24.3,24.82,WSW,247,0.0,-999.0,15,-99.99,,,-99.99,dwt +perl,2013-07-20 04:14:00,
2013-07-19 21:19:00,74.8,29.8,24.82,WSW,247,0.0,-999.0,19,-99.99,,,-99.99,dwt +perl,2013-07-20 04:19:00,
2013-07-19 21:24:00,74.4,35.2,24.82,WSW,246,0.0,-999.0,24,-99.99,,,-99.99,dwt +perl,2013-07-20 04:24:00,
2013-07-19 21:29:00,74.0,34.9,24.82,WSW,246,0.0,-999.0,24,-99.99,,,-99.99,dwt +perl,2013-07-20 04:29:00,
2013-07-19 21:34:00,73.4,36.4,24.82,WSW,247,0.0,-999.0,26,-99.99,,,-99.99,dwt +perl,2013-07-20 04:34:00,
2013-07-19 21:39:00,73.3,35.3,24.82,WSW,247,0.0,-999.0,25,-99.99,,,-99.99,dwt +perl,2013-07-20 04:39:00,
2013-07-19 21:44:00,73.1,35.2,24.82,WSW,247,0.0,-999.0,25,-99.99,,,-99.99,dwt +perl,2013-07-20 04:44:00,
2013-07-19 21:49:00,73.1,30.8,24.82,WSW,247,0.0,-999.0,21,-99.99,,,-99.99,dwt +perl,2013-07-20 04:49:00,
2013-07-19 21:54:00,73.6,19.7,24.83,WSW,247,0.0,-999.0,13,-99.99,,,-99.99,dwt +perl,2013-07-20 04:54:00,
2013-07-19 21:59:00,74.1,14.1,24.82,WSW,247,0.0,-999.0,10,-99.99,,,-99.99,dwt +perl,2013-07-20 04:59:00,
2013-07-19 22:04:00,74.4,11.9,24.83,WSW,247,0.0,-999.0,9,-99.99,,,-99.99,dwt +perl,2013-07-20 05:04:00,
2013-07-19 22:09:00,74.7,9.5,24.83,WSW,247,3.0,-999.0,8,-99.99,,,-99.99,dwt +perl,2013-07-20 05:09:00,
2013-07-19 22:14:00,75.1,9.8,24.83,WSW,246,4.0,-999.0,8,-99.99,,,-99.99,dwt +perl,2013-07-20 05:14:00,
2013-07-19 22:19:00,75.6,10.2,24.83,WSW,247,4.0,-999.0,8,-99.99,,,-99.99,dwt +perl,2013-07-20 05:19:00,
2013-07-19 22:24:00,75.9,4.1,24.83,WSW,247,4.0,-999.0,6,-99.99,,,-99.99,dwt +perl,2013-07-20 05:24:00,
2013-07-19 22:29:00,76.1,4.2,24.83,West,259,4.0,-999.0,6,-99.99,,,-99.99,dwt +perl,2013-07-20 05:29:00,
2013-07-19 22:34:00,76.1,7.6,24.83,West,266,3.0,-999.0,7,-99.99,,,-99.99,dwt +perl,2013-07-20 05:34:00,
2013-07-19 22:39:00,76.0,7.5,24.83,West,269,5.0,-999.0,7,-99.99,,,-99.99,dwt +perl,2013-07-20 05:39:00,
2013-07-19 22:44:00,76.0,4.1,24.82,West,271,3.0,-999.0,6,-99.99,,,-99.99,dwt +perl,2013-07-20 05:44:00,
2013-07-19 22:49:00,75.9,-4.5,24.82,West,274,5.0,-999.0,4,-99.99,,,-99.99,dwt +perl,2013-07-20 05:49:00,
2013-07-19 22:54:00,75.9,0.2,24.82,West,280,3.0,-999.0,5,-99.99,,,-99.99,dwt +perl,2013-07-20 05:54:00,
2013-07-19 22:59:00,75.9,4.1,24.82,West,281,4.0,-999.0,6,-99.99,,,-99.99,dwt +perl,2013-07-20 05:59:00,
2013-07-19 23:04:00,75.8,0.1,24.82,WNW,282,5.0,-999.0,5,-99.99,,,-99.99,dwt +perl,2013-07-20 06:04:00,
2013-07-19 23:09:00,75.9,-4.5,24.82,WNW,283,5.0,-999.0,4,-99.99,,,-99.99,dwt +perl,2013-07-20 06:09:00,
2013-07-19 23:14:00,75.9,-4.5,24.82,WNW,283,3.0,-999.0,4,-99.99,,,-99.99,dwt +perl,2013-07-20 06:14:00,
2013-07-19 23:19:00,76.0,0.2,24.82,WNW,283,6.0,-999.0,5,-99.99,,,-99.99,dwt +perl,2013-07-20 06:19:00,
2013-07-19 23:24:00,76.0,7.5,24.82,WNW,283,4.0,-999.0,7,-99.99,,,-99.99,dwt +perl,2013-07-20 06:24:00,
2013-07-19 23:29:00,75.9,7.4,24.82,WNW,283,5.0,-999.0,7,-99.99,,,-99.99,dwt +perl,2013-07-20 06:29:00,
2013-07-19 23:34:00,75.9,-4.5,24.82,WNW,283,4.0,-999.0,4,-99.99,,,-99.99,dwt +perl,2013-07-20 06:34:00,
2013-07-19 23:39:00,76.1,-18.2,24.82,West,272,6.0,-999.0,2,-99.99,,,-99.99,dwt +perl,2013-07-20 06:39:00,
2013-07-19 23:44:00,76.2,-18.2,24.82,West,272,5.0,-999.0,2,-99.99,,,-99.99,dwt +perl,2013-07-20 06:44:00,
2013-07-19 23:49:00,76.2,-10.2,24.82,West,270,6.0,-999.0,3,-99.99,,,-99.99,dwt +perl,2013-07-20 06:49:00,
2013-07-19 23:54:00,76.2,-4.3,24.82,WSW,257,3.0,-999.0,4,-99.99,,,-99.99,dwt +perl,2013-07-20 06:54:00,
2013-07-19 23:59:00,76.0,-4.4,24.82,West,268,6.0,-999.0,4,-99.99,,,-99.99,dwt +perl,2013-07-20 06:59:00,